This is the latest recevied weather packets stored in our database for station/object DG3GAI-6. If no packets are shown the sender has not sent any weather packets the latest 10 day(s).
| Time | Temp. | Humidity | Pressure | Rain* | Wind** | Luminosity | Snow |
|---|---|---|---|---|---|---|---|
| 1778247144 | 13.33° C | 74% | 1019 hPa | - | - | - | - |
| 1778245337 | 13.33° C | 76% | 1019 hPa | - | - | - | - |
| 1778243530 | 12.78° C | 78% | 1019 hPa | - | - | - | - |
| 1778241722 | 12.78° C | 78% | 1019 hPa | - | - | - | - |
| 1778239915 | 12.78° C | 85% | 1019 hPa | - | - | - | - |
| 1778238108 | 12.22° C | 85% | 1019 hPa | - | - | - | - |
| 1778236301 | 11.67° C | 89% | 1019 hPa | - | - | - | - |
| 1778234493 | 10.56° C | 89% | 1020 hPa | - | - | - | - |
| 1778232686 | 10.56° C | 88% | 1020 hPa | - | - | - | - |
| 1778230879 | 11.11° C | 93% | 1020 hPa | - | - | - | - |
| 1778229072 | 10° C | 90% | 1020 hPa | - | - | - | - |
| 1778227264 | 10° C | 95% | 1020 hPa | - | - | - | - |
| 1778225457 | 9.44° C | 10% | - | - | - | - | - |
| 1778223650 | 8.89° C | 93% | 1020 hPa | - | - | - | - |
| 1778221843 | 8.33° C | 89% | 1020 hPa | - | - | - | - |
| 1778220035 | 7.78° C | 86% | 1019 hPa | - | - | - | - |
| 1778218228 | 7.22° C | 84% | 1019 hPa | - | - | - | - |
| 1778216421 | 7.22° C | 80% | 1019 hPa | - | - | - | - |
| 1778214613 | 6.67° C | 79% | 1019 hPa | - | - | - | - |
| 1778212806 | 7.22° C | 78% | 1019 hPa | - | - | - | - |
| 1778210999 | 7.22° C | 79% | 1019 hPa | - | - | - | - |
| 1778209192 | 7.22° C | 79% | 1019 hPa | - | - | - | - |
| 1778207384 | 7.78° C | 79% | 1019 hPa | - | - | - | - |
| 1778205577 | 7.78° C | 81% | 1019 hPa | - | - | - | - |
| 1778203770 | 8.33° C | 83% | 1019 hPa | - | - | - | - |
* Rain since midnight (hover to see other rain measurements)
** Current wind speed in m/s (hover to see current wind gust speed)